M I D A S
Marine Information and Data Acquisition System
Tripno 1714 of the Zeeleeuw from 2009-06-23 06:43:27 to 2009-06-23 14:36:06
Back to CruiseResearch ActivitiesStationsMapUnderway DataData graphs

EquipmentUnitsComments
TimeDGPSUTC
LatitudeDGPSDM.mWGS84
LongitudeDGPSDM.mWGS84
SpeedMeteo Stationm/sRelative wind speed
DirectionMeteo StationdegRelative wind direction
TemperatureMeteo Stationdeg CelciusAir temperature
PressureMeteo StationPaAtmospheric pressure
HumidityMeteo Station%Relative humidity
Missing or incorrect values are displayed as -999
Metereological data collected by the RV Zeeleeuw from 2009-06-23 06:50:02 to 2009-06-23 14:40:53
                                                                                    Next 1000 lines
Time Latitude Longitude Speed Direction Temperature Pressure Humidity
2009-06-23 06:50:12 51°13.662 2°55.958 3.2 25 16 102900 68
2009-06-23 06:50:17 51°13.663 2°55.959 2.3 303 16 102900 68
2009-06-23 06:50:22 51°13.663 2°55.96 3.2 24 16 102900 68
2009-06-23 06:50:27 51°13.662 2°55.959 1.7 303 16 102900 68
2009-06-23 06:50:32 51°13.662 2°55.959 1.8 25 16 102900 69
2009-06-23 06:50:37 51°13.661 2°55.959 2 304 16 102900 69
2009-06-23 06:50:42 51°13.661 2°55.959 1.7 25 16.1 102900 68
2009-06-23 06:50:47 51°13.661 2°55.959 1.9 309 16.1 102900 68
2009-06-23 06:50:52 51°13.661 2°55.959 1.9 19 16 102900 68
2009-06-23 06:50:57 51°13.661 2°55.96 2.4 301 16 102900 68
2009-06-23 06:51:02 51°13.663 2°55.962 2.6 26 16 102900 68
2009-06-23 06:51:07 51°13.662 2°55.961 2.3 302 16 102900 68
2009-06-23 06:51:12 51°13.662 2°55.96 2.2 250 16 102900 68
2009-06-23 06:51:17 51°13.661 2°55.959 2.2 310 16 102900 68
2009-06-23 06:51:22 51°13.662 2°55.96 2.2 22 16.1 102900 68
2009-06-23 06:51:27 51°13.662 2°55.96 2.2 304 16.1 102900 68
2009-06-23 06:51:32 51°13.662 2°55.959 1.5 21 16.1 102900 69
2009-06-23 06:51:37 51°13.662 2°55.959 1 308 16.1 102900 69
2009-06-23 06:51:42 51°13.661 2°55.959 1.2 21 16.1 102900 68
2009-06-23 06:51:47 51°13.662 2°55.959 1.7 326 16.1 102900 68
2009-06-23 06:51:52 51°13.662 2°55.958 1.7 321 16.1 102900 68
2009-06-23 06:51:57 51°13.662 2°55.957 1 305 16.1 102900 68
2009-06-23 06:52:02 51°13.662 2°55.957 1.1 25 16.1 102900 68
2009-06-23 06:52:07 51°13.662 2°55.956 2.1 303 16.1 102900 68
2009-06-23 06:52:12 51°13.663 2°55.956 2.4 317 16.1 102900 68
2009-06-23 06:52:16 51°13.663 2°55.955 3.1 302 16.1 102900 68
2009-06-23 06:52:22 51°13.663 2°55.953 2.4 27 16.2 102900 68
2009-06-23 06:52:27 51°13.664 2°55.953 2.9 303 16.2 102900 68
2009-06-23 06:52:32 51°13.664 2°55.951 3.4 248 16.2 102900 69
2009-06-23 06:52:37 51°13.665 2°55.95 2.9 310 16.2 102900 69
2009-06-23 06:52:42 51°13.665 2°55.949 2.5 21 16.2 102900 69
2009-06-23 06:52:47 51°13.665 2°55.948 2 302 16.2 102900 69
2009-06-23 06:52:52 51°13.666 2°55.947 1.5 26 16.2 102900 69
2009-06-23 06:52:57 51°13.667 2°55.945 2.1 301 16.2 102900 69
2009-06-23 06:53:02 51°13.668 2°55.943 2.4 28 16.2 102900 68
2009-06-23 06:53:07 51°13.669 2°55.941 2.6 309 16.2 102900 68
2009-06-23 06:53:12 51°13.67 2°55.938 2.5 29 16.2 102900 67
2009-06-23 06:53:17 51°13.67 2°55.935 2.9 304 16.2 102900 67
2009-06-23 06:53:22 51°13.671 2°55.932 2.9 25 16.2 102900 67
2009-06-23 06:53:27 51°13.673 2°55.928 2.7 302 16.2 102900 67
2009-06-23 06:53:32 51°13.674 2°55.924 2.4 22 16.2 102900 68
2009-06-23 06:53:37 51°13.676 2°55.919 2.8 302 16.2 102900 68
2009-06-23 06:53:42 51°13.677 2°55.915 2.3 22 16.2 102900 66
2009-06-23 06:53:47 51°13.679 2°55.91 2.5 304 16.2 102900 66
2009-06-23 06:53:52 51°13.681 2°55.905 2.5 25 16.2 102900 66
2009-06-23 06:53:57 51°13.684 2°55.899 2.3 300 16.2 102900 66
2009-06-23 06:54:02 51°13.686 2°55.894 2 21 16.2 102900 67
2009-06-23 06:54:07 51°13.688 2°55.888 2 310 16.2 102900 67
2009-06-23 06:54:12 51°13.69 2°55.882 2.5 28 16.2 102910 66
2009-06-23 06:54:17 51°13.692 2°55.875 2.1 309 16.2 102910 66
2009-06-23 06:54:22 51°13.693 2°55.869 1.4 21 16.2 102900 66
2009-06-23 06:54:27 51°13.695 2°55.862 0.6 304 16.2 102900 66
2009-06-23 06:54:32 51°13.695 2°55.854 0.3 19 16.2 102900 66
2009-06-23 06:54:37 51°13.696 2°55.847 0.2 301 16.2 102900 66
2009-06-23 06:54:42 51°13.697 2°55.84 0.1 27 16.2 102900 67
2009-06-23 06:54:47 51°13.698 2°55.832 1.5 17 16.2 102900 67
2009-06-23 06:54:52 51°13.698 2°55.825 1.9 349 16.2 102900 66
2009-06-23 06:54:57 51°13.699 2°55.817 1.9 359 16.2 102900 66
2009-06-23 06:55:02 51°13.699 2°55.809 1.3 360 16.2 102900 66
2009-06-23 06:55:07 51°13.7 2°55.802 0.7 357 16.2 102900 66
2009-06-23 06:55:12 51°13.7 2°55.795 1.2 346 16.2 102900 66
2009-06-23 06:55:17 51°13.7 2°55.788 1.5 349 16.2 102900 66
2009-06-23 06:55:22 51°13.701 2°55.781 1.3 348 16.2 102900 66
2009-06-23 06:55:27 51°13.701 2°55.775 1 346 16.2 102900 66
2009-06-23 06:55:32 51°13.701 2°55.769 1.5 346 16.2 102900 66
2009-06-23 06:55:36 51°13.701 2°55.765 1.7 334 16.2 102900 66
2009-06-23 06:55:41 51°13.701 2°55.759 1.4 333 16.2 102900 66
2009-06-23 06:55:46 51°13.701 2°55.754 1.4 333 16.2 102900 66
2009-06-23 06:55:51 51°13.701 2°55.749 1 336 16.2 102900 66
2009-06-23 06:55:56 51°13.701 2°55.745 0.7 348 16.2 102900 66
2009-06-23 06:56:00 51°13.7 2°55.743 1 341 16.1 102900 66
2009-06-23 06:56:06 51°13.7 2°55.739 2 340 16.1 102900 66
2009-06-23 06:56:11 51°13.701 2°55.738 2.2 341 16.1 102900 66
2009-06-23 06:56:15 51°13.701 2°55.738 1.9 338 16.1 102900 66
2009-06-23 06:56:20 51°13.702 2°55.738 2.3 336 16.1 102900 66
2009-06-23 06:56:25 51°13.703 2°55.739 2.5 346 16.1 102900 66
2009-06-23 06:56:30 51°13.704 2°55.74 2.8 5 16.1 102900 66
2009-06-23 06:56:35 51°13.705 2°55.742 4 358 16.1 102900 66
2009-06-23 06:56:40 51°13.706 2°55.743 3.2 357 16 102900 66
2009-06-23 06:56:44 51°13.707 2°55.743 3.6 356 16 102900 66
2009-06-23 06:56:49 51°13.708 2°55.744 3.4 353 16 102900 66
2009-06-23 06:56:54 51°13.709 2°55.745 2.8 353 16 102900 66
2009-06-23 06:56:59 51°13.709 2°55.745 2.1 353 16 102900 67
2009-06-23 06:57:04 51°13.709 2°55.745 2.3 5 16 102900 67
2009-06-23 06:57:08 51°13.709 2°55.745 2.3 358 15.9 102900 67
2009-06-23 06:57:13 51°13.709 2°55.744 2 6 15.9 102900 67
2009-06-23 06:57:18 51°13.709 2°55.743 2.3 15 15.9 102900 68
2009-06-23 06:57:24 51°13.708 2°55.743 2.6 10 15.9 102900 68
2009-06-23 06:57:28 51°13.708 2°55.742 2.9 8 15.9 102900 68
2009-06-23 06:57:33 51°13.708 2°55.742 3.1 2 15.9 102900 68
2009-06-23 06:57:38 51°13.708 2°55.741 2.8 1 15.9 102900 69
2009-06-23 06:57:44 51°13.709 2°55.741 3.4 5 15.9 102900 69
2009-06-23 06:57:48 51°13.709 2°55.74 3.5 4 15.8 102900 67
2009-06-23 06:57:53 51°13.71 2°55.74 2.3 7 15.8 102900 67
2009-06-23 06:57:58 51°13.712 2°55.739 3 33 15.8 102900 68
2009-06-23 06:58:03 51°13.713 2°55.739 2.4 13 15.8 102900 68
2009-06-23 06:58:08 51°13.715 2°55.738 3.1 24 15.8 102900 68
2009-06-23 06:58:13 51°13.717 2°55.737 3.2 34 15.8 102900 68
2009-06-23 06:58:18 51°13.719 2°55.736 3.9 25 15.7 102900 68
2009-06-23 06:58:23 51°13.721 2°55.734 3.2 32 15.7 102900 68
2009-06-23 06:58:28 51°13.723 2°55.732 2.7 28 15.7 102900 68
2009-06-23 06:58:33 51°13.726 2°55.73 2.5 29 15.7 102900 68
2009-06-23 06:58:38 51°13.729 2°55.727 1.8 23 15.7 102900 68
2009-06-23 06:58:44 51°13.734 2°55.723 2.3 32 15.7 102900 68
2009-06-23 06:58:48 51°13.737 2°55.719 1.9 31 15.7 102900 68
2009-06-23 06:58:54 51°13.743 2°55.715 1.5 23 15.7 102900 68
2009-06-23 06:58:58 51°13.747 2°55.711 1.4 28 15.7 102910 68
2009-06-23 06:59:03 51°13.752 2°55.706 1.4 18 15.7 102910 68
2009-06-23 06:59:08 51°13.758 2°55.701 1.9 351 15.6 102900 68
2009-06-23 06:59:12 51°13.763 2°55.697 2.5 359 15.6 102900 68
2009-06-23 06:59:19 51°13.771 2°55.688 2.5 3 15.7 102910 68
2009-06-23 06:59:23 51°13.776 2°55.683 2.2 353 15.7 102910 68
2009-06-23 06:59:28 51°13.783 2°55.677 2.7 350 15.7 102900 68
2009-06-23 06:59:33 51°13.789 2°55.671 3.1 342 15.7 102900 68
2009-06-23 06:59:38 51°13.796 2°55.665 2.5 338 15.6 102910 68
2009-06-23 06:59:43 51°13.803 2°55.659 2.6 338 15.6 102910 68
2009-06-23 06:59:48 51°13.811 2°55.653 3.8 338 15.6 102910 68
2009-06-23 06:59:54 51°13.82 2°55.646 3.3 350 15.6 102910 68
2009-06-23 06:59:58 51°13.826 2°55.641 3.4 353 15.6 102900 68
2009-06-23 07:00:03 51°13.833 2°55.635 2.7 351 15.6 102900 68
2009-06-23 07:00:08 51°13.841 2°55.629 2.4 347 15.6 102910 68
2009-06-23 07:00:13 51°13.849 2°55.622 2.9 343 15.6 102910 68
2009-06-23 07:00:18 51°13.857 2°55.616 3.5 349 15.6 102900 69
2009-06-23 07:00:23 51°13.865 2°55.61 2.6 351 15.6 102900 69
2009-06-23 07:00:28 51°13.873 2°55.603 3.3 360 15.6 102900 69
2009-06-23 07:00:33 51°13.882 2°55.596 3.9 353 15.6 102900 69
2009-06-23 07:00:38 51°13.89 2°55.589 3.6 359 15.6 102910 69
2009-06-23 07:00:43 51°13.898 2°55.583 2.9 357 15.6 102910 69
2009-06-23 07:00:48 51°13.906 2°55.576 4.4 350 15.5 102910 69
2009-06-23 07:00:53 51°13.914 2°55.57 5.9 349 15.5 102910 69
2009-06-23 07:00:59 51°13.924 2°55.563 4.7 351 15.5 102900 69
2009-06-23 07:01:03 51°13.931 2°55.558 4.9 353 15.5 102900 69
2009-06-23 07:01:08 51°13.939 2°55.551 4.8 353 15.5 102900 70
2009-06-23 07:01:13 51°13.947 2°55.545 3.8 351 15.5 102900 70
2009-06-23 07:01:18 51°13.956 2°55.539 4 353 15.5 102900 70
2009-06-23 07:01:23 51°13.964 2°55.533 4.3 359 15.5 102900 70
2009-06-23 07:01:28 51°13.972 2°55.526 4.4 -999 15.4 102900 69
2009-06-23 07:01:32 51°13.979 2°55.521 3.8 357 15.4 102900 69
2009-06-23 07:01:39 51°13.991 2°55.511 3.8 1 15.4 102900 68
2009-06-23 07:01:43 51°13.998 2°55.505 2.6 4 15.4 102900 68
2009-06-23 07:01:48 51°14.006 2°55.499 2.3 357 15.3 102900 68
2009-06-23 07:01:53 51°14.015 2°55.492 3.7 356 15.3 102900 68
2009-06-23 07:01:58 51°14.023 2°55.485 3.2 353 15.3 102900 68
2009-06-23 07:02:03 51°14.031 2°55.479 2.8 357 15.3 102900 68
2009-06-23 07:02:08 51°14.039 2°55.473 2.9 351 15.3 102910 69
2009-06-23 07:02:13 51°14.047 2°55.468 2.6 6 15.3 102910 69
2009-06-23 07:02:18 51°14.054 2°55.462 2.9 1 15.3 102900 69
2009-06-23 07:02:24 51°14.063 2°55.455 2.8 -999 15.3 102900 69
2009-06-23 07:02:28 51°14.069 2°55.451 3.1 1 15.3 102910 69
2009-06-23 07:02:33 51°14.077 2°55.445 3.3 359 15.3 102910 69
2009-06-23 07:02:38 51°14.085 2°55.438 2.6 -999 15.3 102910 70
2009-06-23 07:02:43 51°14.092 2°55.433 2.9 358 15.3 102910 70
2009-06-23 07:02:48 51°14.099 2°55.427 2.9 359 15.3 102910 70
2009-06-23 07:02:53 51°14.107 2°55.422 3.1 2 15.3 102910 70
2009-06-23 07:02:58 51°14.114 2°55.416 2.7 5 15.3 102910 70
2009-06-23 07:03:03 51°14.121 2°55.411 2.6 6 15.3 102910 70
2009-06-23 07:03:08 51°14.129 2°55.406 2.8 357 15.3 102910 70
2009-06-23 07:03:13 51°14.136 2°55.4 3.4 337 15.3 102910 70
2009-06-23 07:03:18 51°14.144 2°55.394 3.5 346 15.3 102910 70
2009-06-23 07:03:23 51°14.152 2°55.388 4.8 1 15.3 102910 70
2009-06-23 07:03:28 51°14.159 2°55.382 4.9 1 15.3 102900 71
2009-06-23 07:03:33 51°14.167 2°55.376 4.5 358 15.3 102900 71
2009-06-23 07:03:38 51°14.175 2°55.369 4.3 -999 15.3 102910 71
2009-06-23 07:03:43 51°14.182 2°55.362 4.9 355 15.3 102910 71
2009-06-23 07:03:48 51°14.19 2°55.355 4.7 357 15.3 102900 71
2009-06-23 07:03:53 51°14.197 2°55.347 4.9 352 15.3 102900 71
2009-06-23 07:03:58 51°14.205 2°55.339 5.2 348 15.3 102910 70
2009-06-23 07:04:04 51°14.214 2°55.329 4.2 352 15.3 102910 70
2009-06-23 07:04:08 51°14.219 2°55.322 5.5 355 15.3 102910 70
2009-06-23 07:04:13 51°14.226 2°55.313 4.4 355 15.3 102910 70
2009-06-23 07:04:18 51°14.233 2°55.305 4.1 355 15.3 102910 70
2009-06-23 07:04:24 51°14.242 2°55.293 4.5 353 15.3 102910 70
2009-06-23 07:04:28 51°14.247 2°55.286 4.5 353 15.3 102910 70
2009-06-23 07:04:34 51°14.256 2°55.274 4.1 355 15.3 102910 70
2009-06-23 07:04:38 51°14.261 2°55.266 4.2 345 15.3 102900 69
2009-06-23 07:04:43 51°14.268 2°55.256 5.6 354 15.3 102900 69
2009-06-23 07:04:48 51°14.274 2°55.244 4.7 354 15.3 102910 70
2009-06-23 07:04:54 51°14.282 2°55.23 5.4 356 15.3 102910 70
2009-06-23 07:04:58 51°14.287 2°55.22 5 357 15.3 102910 71
2009-06-23 07:05:03 51°14.294 2°55.207 5 356 15.3 102910 71
2009-06-23 07:05:08 51°14.301 2°55.194 5.3 356 15.3 102900 70
2009-06-23 07:05:13 51°14.307 2°55.18 4.6 360 15.3 102900 70
2009-06-23 07:05:18 51°14.314 2°55.166 4.6 359 15.3 102900 70
2009-06-23 07:05:23 51°14.321 2°55.151 4.7 355 15.3 102900 70
2009-06-23 07:05:28 51°14.327 2°55.135 4.8 355 15.3 102900 71
2009-06-23 07:05:34 51°14.336 2°55.116 5.1 355 15.3 102900 71
2009-06-23 07:05:38 51°14.342 2°55.103 4.5 353 15.3 102900 70
2009-06-23 07:05:43 51°14.35 2°55.087 4.5 355 15.3 102900 70
2009-06-23 07:05:48 51°14.358 2°55.07 4.1 355 15.3 102900 69
2009-06-23 07:05:53 51°14.367 2°55.054 5.7 351 15.3 102900 69
2009-06-23 07:05:59 51°14.378 2°55.035 4.6 352 15.2 102900 68
2009-06-23 07:06:03 51°14.386 2°55.022 5.7 351 15.2 102900 68
2009-06-23 07:06:08 51°14.395 2°55.005 5.5 351 15.2 102910 68
2009-06-23 07:06:13 51°14.405 2°54.988 5.9 351 15.2 102910 68
2009-06-23 07:06:19 51°14.417 2°54.968 7.1 352 15.2 102910 70
2009-06-23 07:06:23 51°14.425 2°54.954 6.1 350 15.2 102910 70
2009-06-23 07:06:28 51°14.436 2°54.938 7.6 350 15.2 102910 70
2009-06-23 07:06:33 51°14.446 2°54.921 6.6 348 15.2 102910 70
2009-06-23 07:06:39 51°14.459 2°54.9 7.3 348 15.2 102910 70
2009-06-23 07:06:44 51°14.47 2°54.884 7.4 346 15.2 102910 70
2009-06-23 07:06:48 51°14.479 2°54.871 7.3 347 15.2 102900 71
2009-06-23 07:06:53 51°14.491 2°54.855 6.4 345 15.2 102900 71
2009-06-23 07:06:58 51°14.503 2°54.84 8.1 346 15.1 102900 69
2009-06-23 07:07:03 51°14.516 2°54.825 6.9 346 15.1 102900 69
2009-06-23 07:07:08 51°14.529 2°54.811 7.6 347 15.1 102900 69
2009-06-23 07:07:14 51°14.544 2°54.793 6.1 346 15.1 102900 69
2009-06-23 07:07:18 51°14.554 2°54.782 7.1 347 15.1 102900 68
2009-06-23 07:07:23 51°14.567 2°54.769 6 348 15.1 102900 68
2009-06-23 07:07:28 51°14.581 2°54.756 7.2 349 15 102900 68
2009-06-23 07:07:33 51°14.594 2°54.743 8 344 15 102900 68
2009-06-23 07:07:38 51°14.607 2°54.729 8 345 15 102900 68
2009-06-23 07:07:43 51°14.62 2°54.717 7.9 344 15 102900 68
2009-06-23 07:07:48 51°14.634 2°54.704 6.5 344 15 102900 68
2009-06-23 07:07:53 51°14.647 2°54.691 7.1 343 15 102900 68
2009-06-23 07:07:59 51°14.663 2°54.676 8 344 15 102900 69
2009-06-23 07:08:03 51°14.675 2°54.667 7 342 15 102900 69
2009-06-23 07:08:08 51°14.689 2°54.655 7.9 344 15 102900 69
2009-06-23 07:08:13 51°14.703 2°54.644 6.9 344 15 102900 69
2009-06-23 07:08:18 51°14.717 2°54.633 8.1 344 15 102910 70
2009-06-23 07:08:23 51°14.731 2°54.622 7.9 344 15 102910 70
2009-06-23 07:08:28 51°14.745 2°54.611 6.8 345 15 102900 70
2009-06-23 07:08:33 51°14.759 2°54.6 7.7 346 15 102900 70
2009-06-23 07:08:38 51°14.773 2°54.589 6.8 346 15 102900 69
2009-06-23 07:08:44 51°14.79 2°54.576 6.7 346 15 102900 69
2009-06-23 07:08:48 51°14.801 2°54.567 7.4 346 15 102900 69
2009-06-23 07:08:53 51°14.815 2°54.556 8 344 15 102900 69
2009-06-23 07:08:58 51°14.829 2°54.546 6.7 344 15 102900 70
2009-06-23 07:09:04 51°14.846 2°54.533 6.6 344 15 102900 70
2009-06-23 07:09:08 51°14.857 2°54.525 7.4 343 15 102910 70
2009-06-23 07:09:13 51°14.871 2°54.515 7.8 344 15 102910 70
2009-06-23 07:09:18 51°14.885 2°54.506 6.6 344 15 102900 70
2009-06-23 07:09:23 51°14.898 2°54.496 6.7 346 15 102900 70
2009-06-23 07:09:28 51°14.913 2°54.486 7.3 346 15 102900 70
2009-06-23 07:09:33 51°14.927 2°54.477 6.4 345 15 102900 70
2009-06-23 07:09:38 51°14.941 2°54.467 7.2 346 15 102900 69
2009-06-23 07:09:43 51°14.955 2°54.458 6.8 347 15 102900 69
2009-06-23 07:09:48 51°14.968 2°54.444 5.7 347 15 102910 70
2009-06-23 07:09:53 51°14.982 2°54.432 6.6 344 15 102910 70
2009-06-23 07:09:58 51°14.995 2°54.419 6.6 345 15 102910 70
2009-06-23 07:10:04 51°15.011 2°54.403 6.7 348 15 102910 70
2009-06-23 07:10:08 51°15.022 2°54.391 5.9 347 14.9 102910 71
2009-06-23 07:10:14 51°15.037 2°54.373 7.1 349 14.9 102910 71
2009-06-23 07:10:18 51°15.046 2°54.361 6.3 349 15 102910 71
2009-06-23 07:10:23 51°15.058 2°54.346 6.2 352 15 102910 71
2009-06-23 07:10:28 51°15.071 2°54.33 7.3 350 15 102910 71
2009-06-23 07:10:32 51°15.08 2°54.318 6.5 350 15 102910 71
2009-06-23 07:10:39 51°15.097 2°54.295 7.2 351 15 102910 71
2009-06-23 07:10:43 51°15.106 2°54.282 6.5 350 15 102910 71
2009-06-23 07:10:48 51°15.118 2°54.264 6.3 351 15 102910 71
2009-06-23 07:10:53 51°15.129 2°54.247 6.6 351 15 102910 71
2009-06-23 07:10:58 51°15.14 2°54.228 6.3 353 14.9 102900 69
2009-06-23 07:11:03 51°15.151 2°54.21 5.6 352 14.9 102900 69
2009-06-23 07:11:08 51°15.161 2°54.191 7 352 15 102900 69
2009-06-23 07:11:13 51°15.172 2°54.172 5.7 351 15 102900 69
2009-06-23 07:11:18 51°15.182 2°54.153 5.6 352 14.9 102900 68
2009-06-23 07:11:24 51°15.195 2°54.13 5.2 352 14.9 102900 68
2009-06-23 07:11:28 51°15.203 2°54.114 5.7 352 14.9 102910 69
2009-06-23 07:11:33 51°15.213 2°54.094 5.9 353 14.9 102910 69
2009-06-23 07:11:38 51°15.222 2°54.073 5.6 351 14.9 102910 69
2009-06-23 07:11:43 51°15.231 2°54.052 4.9 351 14.9 102910 69
2009-06-23 07:11:48 51°15.241 2°54.031 4.9 350 14.9 102910 69
2009-06-23 07:11:53 51°15.249 2°54.009 5 351 14.9 102910 69
2009-06-23 07:11:58 51°15.258 2°53.988 4.6 352 14.9 102910 69
2009-06-23 07:12:03 51°15.266 2°53.965 4.6 354 14.9 102910 69
2009-06-23 07:12:08 51°15.275 2°53.943 5 347 14.9 102910 70
2009-06-23 07:12:13 51°15.282 2°53.92 4.7 352 14.9 102910 70
2009-06-23 07:12:18 51°15.29 2°53.897 4.7 348 14.9 102910 69
2009-06-23 07:12:23 51°15.297 2°53.873 5 348 14.9 102910 69
2009-06-23 07:12:28 51°15.305 2°53.849 4.6 345 14.9 102910 70
2009-06-23 07:12:33 51°15.312 2°53.824 5.4 348 14.9 102910 70
2009-06-23 07:12:38 51°15.318 2°53.8 5.2 346 14.9 102910 70
2009-06-23 07:12:43 51°15.325 2°53.775 4.7 347 14.9 102910 70
2009-06-23 07:12:48 51°15.332 2°53.751 4.4 346 15 102910 70
2009-06-23 07:12:53 51°15.339 2°53.727 5.2 347 15 102910 70
2009-06-23 07:12:58 51°15.346 2°53.703 5.1 347 14.9 102910 69
2009-06-23 07:13:04 51°15.355 2°53.674 4.7 349 14.9 102910 69
2009-06-23 07:13:08 51°15.361 2°53.655 5.4 348 14.9 102910 69
2009-06-23 07:13:13 51°15.369 2°53.632 4.7 348 14.9 102910 69
2009-06-23 07:13:19 51°15.379 2°53.604 5 348 14.9 102920 69
2009-06-23 07:13:24 51°15.387 2°53.58 4.8 351 14.9 102920 69
2009-06-23 07:13:28 51°15.393 2°53.562 5.1 349 14.9 102910 70
2009-06-23 07:13:34 51°15.402 2°53.533 4.5 351 14.9 102910 70
2009-06-23 07:13:38 51°15.408 2°53.514 4.4 349 14.9 102910 69
2009-06-23 07:13:43 51°15.416 2°53.49 4.2 348 14.9 102910 69
2009-06-23 07:13:48 51°15.423 2°53.466 5.1 346 14.9 102910 70
2009-06-23 07:13:54 51°15.432 2°53.437 5.9 348 14.9 102910 70
2009-06-23 07:13:58 51°15.438 2°53.418 5.2 348 14.9 102910 69
2009-06-23 07:14:04 51°15.447 2°53.389 5.3 350 14.9 102910 69
2009-06-23 07:14:08 51°15.453 2°53.37 4.7 350 14.9 102910 70
2009-06-23 07:14:13 51°15.46 2°53.346 5 347 14.9 102910 70
2009-06-23 07:14:18 51°15.468 2°53.322 5.1 344 14.9 102910 70
2009-06-23 07:14:23 51°15.475 2°53.298 5.4 344 14.9 102910 70
2009-06-23 07:14:28 51°15.483 2°53.273 4.7 339 14.9 102910 70
2009-06-23 07:14:34 51°15.493 2°53.245 4.4 350 14.9 102910 70
2009-06-23 07:14:38 51°15.499 2°53.226 5 347 15 102910 71
2009-06-23 07:14:43 51°15.507 2°53.203 5 341 15 102910 71
2009-06-23 07:14:48 51°15.515 2°53.179 5.9 343 15 102910 71
2009-06-23 07:14:53 51°15.524 2°53.156 5.2 343 15 102910 71
2009-06-23 07:14:59 51°15.534 2°53.127 5.8 345 15 102910 71
2009-06-23 07:15:03 51°15.541 2°53.109 4.9 346 15 102910 71
2009-06-23 07:15:08 51°15.549 2°53.085 5.5 343 15 102920 71
2009-06-23 07:15:13 51°15.558 2°53.062 5.5 345 15 102920 71
2009-06-23 07:15:19 51°15.568 2°53.034 4.9 345 15 102910 70
2009-06-23 07:15:23 51°15.575 2°53.015 5 343 15 102910 70
2009-06-23 07:15:28 51°15.584 2°52.992 5.2 347 15 102920 70
2009-06-23 07:15:33 51°15.592 2°52.969 5.4 348 15 102920 70
2009-06-23 07:15:39 51°15.603 2°52.942 5.7 349 15 102910 70
2009-06-23 07:15:44 51°15.614 2°52.922 6 348 15 102910 70
2009-06-23 07:15:48 51°15.623 2°52.907 6.3 351 15 102910 71
2009-06-23 07:15:53 51°15.634 2°52.889 6 348 15 102910 71
2009-06-23 07:15:58 51°15.646 2°52.872 6.4 347 15 102910 70
2009-06-23 07:16:04 51°15.661 2°52.854 7.2 343 15 102910 70
2009-06-23 07:16:08 51°15.672 2°52.845 7.6 343 15 102910 70
2009-06-23 07:16:14 51°15.688 2°52.83 7.6 341 15 102910 70
2009-06-23 07:16:18 51°15.699 2°52.822 7.3 342 15 102910 69
2009-06-23 07:16:23 51°15.713 2°52.811 7.6 342 15 102910 69
2009-06-23 07:16:28 51°15.727 2°52.802 7.3 343 15 102910 70
2009-06-23 07:16:33 51°15.741 2°52.792 7.8 342 15 102910 70
2009-06-23 07:16:39 51°15.759 2°52.781 7.8 343 15 102910 69
2009-06-23 07:16:43 51°15.77 2°52.773 7.2 344 15 102910 69
2009-06-23 07:16:48 51°15.784 2°52.765 7.4 345 15 102910 70
2009-06-23 07:16:53 51°15.798 2°52.756 7 344 15 102910 70
2009-06-23 07:16:59 51°15.816 2°52.746 8.7 345 15 102910 69
2009-06-23 07:17:03 51°15.827 2°52.739 8.1 345 15 102910 69
2009-06-23 07:17:08 51°15.842 2°52.731 8.5 344 15 102910 69
2009-06-23 07:17:13 51°15.856 2°52.722 8 345 15 102910 69
2009-06-23 07:17:18 51°15.871 2°52.714 7.4 343 15 102900 71
2009-06-23 07:17:23 51°15.885 2°52.705 7.5 346 15 102900 71
2009-06-23 07:17:28 51°15.9 2°52.698 6.9 344 15 102900 69
2009-06-23 07:17:33 51°15.914 2°52.689 7.3 280 15 102900 69
2009-06-23 07:17:38 51°15.929 2°52.682 8.4 343 15 102900 69
2009-06-23 07:17:44 51°15.946 2°52.675 8.6 344 15 102900 69
2009-06-23 07:17:48 51°15.958 2°52.671 8.5 343 15 102910 69
2009-06-23 07:17:53 51°15.972 2°52.667 8.9 344 15 102910 69
2009-06-23 07:17:58 51°15.987 2°52.664 9.5 343 15 102910 69
2009-06-23 07:18:04 51°16.005 2°52.66 8.9 343 15 102910 69
2009-06-23 07:18:08 51°16.017 2°52.658 8.7 343 15.1 102910 69
2009-06-23 07:18:13 51°16.031 2°52.656 9.1 344 15.1 102910 69
2009-06-23 07:18:18 51°16.046 2°52.654 7.9 344 15 102900 69
2009-06-23 07:18:23 51°16.061 2°52.651 9 344 15 102900 69
2009-06-23 07:18:28 51°16.075 2°52.649 8.4 343 15 102900 68
2009-06-23 07:18:33 51°16.089 2°52.647 9 346 15 102900 68
2009-06-23 07:18:38 51°16.104 2°52.645 9.8 345 15 102900 67
2009-06-23 07:18:43 51°16.118 2°52.644 9.2 341 15 102900 67
2009-06-23 07:18:48 51°16.132 2°52.643 8.4 344 15 102900 67
2009-06-23 07:18:53 51°16.147 2°52.642 9.6 344 15 102900 67
2009-06-23 07:18:58 51°16.161 2°52.642 9.7 342 15.1 102910 68
2009-06-23 07:19:04 51°16.178 2°52.641 8.5 341 15.1 102910 68
2009-06-23 07:19:08 51°16.19 2°52.64 9.6 342 15.1 102900 70
2009-06-23 07:19:14 51°16.207 2°52.639 8.7 342 15.1 102900 70
2009-06-23 07:19:18 51°16.218 2°52.637 7.8 343 15.1 102900 69
2009-06-23 07:19:23 51°16.233 2°52.636 8.7 343 15.1 102900 69
2009-06-23 07:19:28 51°16.247 2°52.634 8.1 341 15.1 102900 69
2009-06-23 07:19:34 51°16.265 2°52.632 9.1 280 15.1 102900 69
2009-06-23 07:19:39 51°16.28 2°52.63 9.1 341 15.2 102900 70
2009-06-23 07:19:43 51°16.291 2°52.628 9.4 347 15.2 102900 70
2009-06-23 07:19:48 51°16.306 2°52.626 9.2 345 15.2 102910 69
2009-06-23 07:19:53 51°16.321 2°52.623 9.9 344 15.2 102910 69
2009-06-23 07:19:59 51°16.339 2°52.619 8.6 345 15.2 102900 70
2009-06-23 07:20:03 51°16.35 2°52.617 8.3 345 15.2 102900 70
2009-06-23 07:20:08 51°16.365 2°52.614 8.5 345 15.2 102900 70
2009-06-23 07:20:14 51°16.383 2°52.61 9.1 343 15.2 102900 70
2009-06-23 07:20:18 51°16.395 2°52.608 8.4 346 15.1 102900 68
2009-06-23 07:20:23 51°16.409 2°52.607 8.8 348 15.1 102900 68
2009-06-23 07:20:28 51°16.424 2°52.607 9 347 15.1 102900 69
2009-06-23 07:20:33 51°16.439 2°52.605 7.7 348 15.1 102900 69
2009-06-23 07:20:38 51°16.453 2°52.604 7.5 348 15.1 102900 69
2009-06-23 07:20:44 51°16.471 2°52.602 8.3 348 15.1 102900 69
2009-06-23 07:20:48 51°16.483 2°52.601 8.3 348 15.1 102910 68
2009-06-23 07:20:53 51°16.497 2°52.599 8.9 346 15.1 102910 68
2009-06-23 07:20:59 51°16.515 2°52.598 9.3 349 15.1 102900 69
2009-06-23 07:21:03 51°16.527 2°52.596 7.7 348 15.1 102900 69
2009-06-23 07:21:08 51°16.542 2°52.594 8.1 350 15.1 102910 69
2009-06-23 07:21:13 51°16.557 2°52.592 9.1 346 15.1 102910 69
2009-06-23 07:21:19 51°16.575 2°52.589 8.3 347 15.1 102910 70
2009-06-23 07:21:23 51°16.587 2°52.587 9.3 349 15.1 102910 70
2009-06-23 07:21:28 51°16.602 2°52.584 8.5 348 15.2 102900 71
2009-06-23 07:21:33 51°16.617 2°52.581 8.5 349 15.2 102900 71
2009-06-23 07:21:38 51°16.631 2°52.578 9.2 349 15.2 102900 73
2009-06-23 07:21:43 51°16.646 2°52.575 8.6 346 15.2 102900 73
2009-06-23 07:21:48 51°16.661 2°52.572 8.4 345 15.2 102900 75
2009-06-23 07:21:54 51°16.679 2°52.568 8.8 345 15.2 102900 75
2009-06-23 07:21:59 51°16.694 2°52.565 8.2 347 15.1 102900 73
2009-06-23 07:22:03 51°16.706 2°52.562 8.2 346 15.1 102900 73
2009-06-23 07:22:08 51°16.72 2°52.558 9.4 348 15.1 102900 73
2009-06-23 07:22:13 51°16.735 2°52.556 8.1 347 15.1 102900 73
2009-06-23 07:22:19 51°16.752 2°52.552 9.2 346 15.1 102900 73
2009-06-23 07:22:23 51°16.764 2°52.55 9.9 347 15.1 102900 73
2009-06-23 07:22:28 51°16.779 2°52.546 10.2 346 15.1 102910 73
2009-06-23 07:22:34 51°16.796 2°52.542 9.9 348 15.1 102910 73
2009-06-23 07:22:39 51°16.811 2°52.538 8.5 346 15.1 102910 74
2009-06-23 07:22:43 51°16.822 2°52.536 8.9 348 15.1 102910 74
2009-06-23 07:22:48 51°16.837 2°52.532 9.9 347 15.1 102910 74
2009-06-23 07:22:53 51°16.851 2°52.528 10.1 345 15.1 102910 74
2009-06-23 07:22:58 51°16.866 2°52.524 9.8 345 15.1 102900 73
2009-06-23 07:23:03 51°16.88 2°52.521 9.8 346 15.1 102900 73
2009-06-23 07:23:08 51°16.894 2°52.517 9.8 347 15.1 102900 73
2009-06-23 07:23:13 51°16.909 2°52.513 9.7 348 15.1 102900 73
2009-06-23 07:23:19 51°16.926 2°52.509 9.9 346 15 102900 73
2009-06-23 07:23:23 51°16.937 2°52.506 9.2 347 15 102900 73
2009-06-23 07:23:28 51°16.952 2°52.503 9 347 15 102900 73
2009-06-23 07:23:33 51°16.966 2°52.499 8.7 347 15 102900 73
2009-06-23 07:23:39 51°16.983 2°52.496 9.7 348 15 102900 73
2009-06-23 07:23:43 51°16.995 2°52.493 10.4 347 15 102900 73
2009-06-23 07:23:48 51°17.009 2°52.49 9.2 346 15 102900 72
2009-06-23 07:23:53 51°17.023 2°52.486 9.8 348 15 102900 72
2009-06-23 07:23:58 51°17.038 2°52.483 8.8 345 15 102910 72
2009-06-23 07:24:03 51°17.052 2°52.48 9.4 346 15 102910 72
2009-06-23 07:24:08 51°17.067 2°52.477 9.4 349 15 102910 73
2009-06-23 07:24:13 51°17.081 2°52.474 10.1 349 15 102910 73
2009-06-23 07:24:18 51°17.095 2°52.47 9 349 15 102910 72
2009-06-23 07:24:24 51°17.113 2°52.466 9.1 348 15 102910 72
2009-06-23 07:24:28 51°17.124 2°52.464 9.8 349 15 102910 73
2009-06-23 07:24:33 51°17.139 2°52.461 8.2 348 15 102910 73
2009-06-23 07:24:39 51°17.156 2°52.457 8.4 348 15 102900 72
2009-06-23 07:24:44 51°17.171 2°52.455 9.6 348 15 102900 72
2009-06-23 07:24:48 51°17.182 2°52.452 8.9 348 14.9 102900 71
2009-06-23 07:24:54 51°17.199 2°52.448 9.5 345 14.9 102900 71
2009-06-23 07:24:58 51°17.211 2°52.445 9.4 348 14.9 102900 71
2009-06-23 07:25:03 51°17.225 2°52.441 8.9 348 14.9 102900 71
2009-06-23 07:25:08 51°17.24 2°52.436 9 349 14.9 102910 72
2009-06-23 07:25:13 51°17.254 2°52.432 8.9 348 14.9 102910 72
2009-06-23 07:25:18 51°17.268 2°52.426 9.4 348 14.9 102910 72
2009-06-23 07:25:24 51°17.285 2°52.419 8.8 348 14.9 102910 72
2009-06-23 07:25:28 51°17.296 2°52.414 8.9 349 14.9 102910 73
2009-06-23 07:25:34 51°17.313 2°52.407 8.7 349 14.9 102910 73
2009-06-23 07:25:38 51°17.324 2°52.4 8.6 350 14.9 102910 71
2009-06-23 07:25:43 51°17.338 2°52.393 9.7 350 14.9 102910 71
2009-06-23 07:25:48 51°17.352 2°52.385 8.6 349 14.9 102910 72
2009-06-23 07:25:54 51°17.369 2°52.376 8.8 350 14.9 102910 72
2009-06-23 07:25:59 51°17.382 2°52.367 9.2 349 14.9 102900 73
2009-06-23 07:26:03 51°17.394 2°52.361 8.7 350 14.9 102900 73
2009-06-23 07:26:08 51°17.407 2°52.353 9.1 351 14.9 102900 73
2009-06-23 07:26:13 51°17.421 2°52.344 8.7 351 14.9 102900 73
2009-06-23 07:26:19 51°17.438 2°52.335 8.6 349 14.9 102900 73
2009-06-23 07:26:23 51°17.449 2°52.328 9.4 349 14.9 102900 73
2009-06-23 07:26:28 51°17.463 2°52.32 9.1 349 14.9 102910 74
2009-06-23 07:26:34 51°17.479 2°52.31 8.2 351 14.9 102910 74
2009-06-23 07:26:39 51°17.493 2°52.301 8.4 351 14.9 102900 73
2009-06-23 07:26:43 51°17.504 2°52.294 8 352 14.9 102900 73
2009-06-23 07:26:48 51°17.518 2°52.286 8 348 14.9 102910 74
2009-06-23 07:26:53 51°17.532 2°52.277 8.8 349 14.9 102910 74
2009-06-23 07:26:58 51°17.546 2°52.269 8.1 348 14.9 102900 74
2009-06-23 07:27:03 51°17.559 2°52.261 8.4 347 14.9 102900 74
2009-06-23 07:27:08 51°17.573 2°52.253 8.1 346 14.9 102900 76
2009-06-23 07:27:13 51°17.587 2°52.244 8.4 347 14.9 102900 76
2009-06-23 07:27:18 51°17.601 2°52.236 9.4 347 14.9 102910 76
2009-06-23 07:27:24 51°17.618 2°52.226 9.1 348 14.9 102910 76
2009-06-23 07:27:28 51°17.629 2°52.22 8.4 347 14.9 102910 76
2009-06-23 07:27:33 51°17.643 2°52.212 8.9 348 14.9 102910 76
2009-06-23 07:27:39 51°17.66 2°52.201 8.3 345 14.9 102900 75
2009-06-23 07:27:44 51°17.674 2°52.193 7.9 348 14.9 102900 75
2009-06-23 07:27:48 51°17.685 2°52.186 8.4 347 14.9 102910 75
2009-06-23 07:27:53 51°17.699 2°52.177 8.8 348 14.9 102910 75
2009-06-23 07:27:58 51°17.713 2°52.169 8 348 14.8 102900 75
2009-06-23 07:28:03 51°17.727 2°52.16 8.9 350 14.8 102900 75
2009-06-23 07:28:08 51°17.741 2°52.152 8.5 348 14.8 102900 75
2009-06-23 07:28:13 51°17.754 2°52.144 8.9 352 14.8 102900 75
2009-06-23 07:28:19 51°17.771 2°52.134 8.6 350 14.8 102910 75
2009-06-23 07:28:23 51°17.782 2°52.127 8.6 349 14.8 102910 75
2009-06-23 07:28:28 51°17.796 2°52.119 9.8 348 14.8 102910 75
2009-06-23 07:28:33 51°17.81 2°52.111 9 348 14.8 102910 75
2009-06-23 07:28:38 51°17.824 2°52.103 8.4 350 14.8 102910 74
2009-06-23 07:28:43 51°17.838 2°52.095 9.3 350 14.8 102910 74
2009-06-23 07:28:48 51°17.853 2°52.088 9.2 349 14.8 102900 76
2009-06-23 07:28:53 51°17.867 2°52.08 9.5 350 14.8 102900 76
2009-06-23 07:28:58 51°17.881 2°52.072 9.4 350 14.8 102900 73
2009-06-23 07:29:04 51°17.898 2°52.063 8.9 350 14.8 102900 73
2009-06-23 07:29:08 51°17.909 2°52.057 8.7 351 14.8 102900 74
2009-06-23 07:29:13 51°17.923 2°52.05 8.5 351 14.8 102900 74
2009-06-23 07:29:18 51°17.937 2°52.042 8.3 352 14.8 102900 73
2009-06-23 07:29:23 51°17.951 2°52.034 8.9 351 14.8 102900 73
2009-06-23 07:29:28 51°17.965 2°52.026 8.6 350 14.8 102900 72
2009-06-23 07:29:33 51°17.979 2°52.019 9.3 350 14.8 102900 72
2009-06-23 07:29:38 51°17.994 2°52.011 9 350 14.8 102900 71
2009-06-23 07:29:44 51°18.011 2°52.002 8.7 350 14.8 102900 71
2009-06-23 07:29:48 51°18.022 2°51.996 8.1 351 14.8 102900 72
2009-06-23 07:29:53 51°18.036 2°51.988 8.2 351 14.8 102900 72
2009-06-23 07:29:58 51°18.05 2°51.98 8.6 352 14.8 102910 72
2009-06-23 07:30:03 51°18.064 2°51.972 8 351 14.8 102910 72
2009-06-23 07:30:08 51°18.078 2°51.963 8.6 351 14.8 102910 71
2009-06-23 07:30:12 51°18.089 2°51.957 7.3 351 14.8 102910 71
2009-06-23 07:30:18 51°18.106 2°51.947 8.4 352 14.8 102910 70
2009-06-23 07:30:23 51°18.12 2°51.939 7.5 352 14.8 102910 70
2009-06-23 07:30:28 51°18.134 2°51.93 7.9 353 14.8 102900 71
2009-06-23 07:30:33 51°18.148 2°51.922 7.1 352 14.8 102900 71
2009-06-23 07:30:38 51°18.162 2°51.914 7.2 353 14.8 102900 70
2009-06-23 07:30:43 51°18.177 2°51.906 6.9 354 14.8 102900 70
2009-06-23 07:30:48 51°18.191 2°51.897 6.6 353 14.8 102900 70
2009-06-23 07:30:53 51°18.205 2°51.889 6.8 354 14.8 102900 70
2009-06-23 07:30:59 51°18.222 2°51.879 7.2 350 14.8 102910 70
2009-06-23 07:31:03 51°18.233 2°51.872 7.7 351 14.8 102910 70
2009-06-23 07:31:08 51°18.247 2°51.863 7.8 350 14.8 102910 71
2009-06-23 07:31:13 51°18.261 2°51.855 7.6 352 14.8 102910 71
2009-06-23 07:31:19 51°18.278 2°51.845 7.4 350 14.8 102910 72
2009-06-23 07:31:23 51°18.289 2°51.838 8.2 351 14.8 102910 72
2009-06-23 07:31:28 51°18.303 2°51.83 7.8 352 14.9 102910 72
2009-06-23 07:31:33 51°18.318 2°51.821 7.8 351 14.9 102910 72
2009-06-23 07:31:38 51°18.332 2°51.813 7.2 349 14.8 102900 73
2009-06-23 07:31:43 51°18.346 2°51.805 7.8 345 14.8 102900 73
2009-06-23 07:31:48 51°18.36 2°51.797 8.9 346 14.8 102900 73
2009-06-23 07:31:53 51°18.374 2°51.789 7.8 345 14.8 102900 73
2009-06-23 07:31:58 51°18.388 2°51.78 7.8 347 14.8 102910 73
2009-06-23 07:32:03 51°18.403 2°51.772 8 344 14.8 102910 73
2009-06-23 07:32:08 51°18.417 2°51.764 8.6 345 14.9 102910 74
2009-06-23 07:32:13 51°18.431 2°51.756 8 348 14.9 102910 74
2009-06-23 07:32:18 51°18.445 2°51.746 7.3 347 14.8 102910 73
2009-06-23 07:32:23 51°18.459 2°51.737 8.1 347 14.8 102910 73
2009-06-23 07:32:28 51°18.473 2°51.728 8.1 349 14.8 102900 74
2009-06-23 07:32:32 51°18.484 2°51.72 8.1 282 14.8 102900 74
2009-06-23 07:32:38 51°18.501 2°51.709 8.4 347 14.9 102910 74
2009-06-23 07:32:43 51°18.515 2°51.699 7.2 347 14.9 102910 74
2009-06-23 07:32:48 51°18.528 2°51.69 7.3 347 14.9 102900 74
2009-06-23 07:32:54 51°18.545 2°51.679 7.8 349 14.9 102900 74
2009-06-23 07:32:58 51°18.556 2°51.671 7.4 348 14.8 102910 74
2009-06-23 07:33:03 51°18.57 2°51.661 6.9 348 14.8 102910 74
2009-06-23 07:33:08 51°18.584 2°51.651 8.1 349 14.8 102910 74
2009-06-23 07:33:14 51°18.601 2°51.638 7.1 347 14.8 102910 74
2009-06-23 07:33:18 51°18.612 2°51.63 7.8 349 14.8 102900 74
2009-06-23 07:33:23 51°18.626 2°51.62 6.8 349 14.8 102900 74
2009-06-23 07:33:28 51°18.64 2°51.609 7.8 349 14.9 102910 74
2009-06-23 07:33:32 51°18.651 2°51.601 8.1 349 14.9 102910 74
2009-06-23 07:33:38 51°18.668 2°51.589 7.7 350 14.8 102900 74
2009-06-23 07:33:44 51°18.685 2°51.577 7.3 345 14.8 102900 74
2009-06-23 07:33:48 51°18.696 2°51.569 7.9 345 14.8 102910 74
2009-06-23 07:33:53 51°18.71 2°51.559 7.5 346 14.8 102910 74
2009-06-23 07:33:58 51°18.724 2°51.549 8.3 347 14.9 102910 75
2009-06-23 07:34:03 51°18.738 2°51.539 8 347 14.9 102910 75
2009-06-23 07:34:08 51°18.751 2°51.528 8 346 14.9 102910 75
2009-06-23 07:34:13 51°18.765 2°51.518 8.8 346 14.9 102910 75
2009-06-23 07:34:18 51°18.779 2°51.508 7.7 346 14.9 102910 75
2009-06-23 07:34:23 51°18.793 2°51.497 8.4 345 14.9 102910 75
2009-06-23 07:34:28 51°18.807 2°51.486 7.9 346 14.9 102900 75
2009-06-23 07:34:33 51°18.821 2°51.476 7.5 347 14.9 102900 75
2009-06-23 07:34:38 51°18.834 2°51.464 7.7 347 14.9 102910 76
2009-06-23 07:34:43 51°18.848 2°51.453 7.4 349 14.9 102910 76
2009-06-23 07:34:48 51°18.862 2°51.442 8.9 351 14.9 102910 76
2009-06-23 07:34:53 51°18.875 2°51.431 8.6 350 14.9 102910 76
2009-06-23 07:34:58 51°18.889 2°51.419 7.8 350 14.9 102900 76
2009-06-23 07:35:03 51°18.903 2°51.408 7.4 350 14.9 102900 76
2009-06-23 07:35:08 51°18.916 2°51.396 8.2 350 14.9 102910 77
2009-06-23 07:35:13 51°18.93 2°51.384 7.2 351 14.9 102910 77
2009-06-23 07:35:18 51°18.944 2°51.373 7.8 349 14.9 102900 76
2009-06-23 07:35:23 51°18.957 2°51.361 7.7 348 14.9 102900 76
2009-06-23 07:35:28 51°18.971 2°51.349 7.3 348 14.9 102910 77
2009-06-23 07:35:33 51°18.985 2°51.338 7.7 348 14.9 102910 77
2009-06-23 07:35:39 51°19.001 2°51.324 7.5 348 14.9 102900 76
2009-06-23 07:35:43 51°19.012 2°51.315 7.9 346 14.9 102900 76
2009-06-23 07:35:48 51°19.026 2°51.303 7.8 347 14.9 102910 76
2009-06-23 07:35:53 51°19.039 2°51.291 7.3 347 14.9 102910 76
2009-06-23 07:35:59 51°19.056 2°51.278 7.8 349 14.9 102900 77
2009-06-23 07:36:03 51°19.067 2°51.269 7.1 349 14.9 102900 77
2009-06-23 07:36:08 51°19.08 2°51.257 7.8 348 14.9 102910 76
2009-06-23 07:36:13 51°19.094 2°51.246 7.6 347 14.9 102910 76
2009-06-23 07:36:18 51°19.108 2°51.235 7.8 345 14.9 102910 77
2009-06-23 07:36:23 51°19.121 2°51.223 7.9 344 14.9 102910 77
2009-06-23 07:36:28 51°19.135 2°51.212 8.3 346 14.9 102910 76
2009-06-23 07:36:33 51°19.149 2°51.201 8.4 279 14.9 102910 76
2009-06-23 07:36:38 51°19.162 2°51.19 9 347 14.9 102910 77
2009-06-23 07:36:43 51°19.175 2°51.18 8 347 14.9 102910 77
2009-06-23 07:36:48 51°19.189 2°51.168 8.9 347 14.9 102910 76
2009-06-23 07:36:53 51°19.203 2°51.157 8.4 348 14.9 102910 76
2009-06-23 07:36:58 51°19.217 2°51.145 8.6 349 14.9 102910 76
2009-06-23 07:37:03 51°19.23 2°51.134 8.4 347 14.9 102910 76
2009-06-23 07:37:08 51°19.244 2°51.122 8.4 349 14.9 102900 76
2009-06-23 07:37:12 51°19.255 2°51.113 8.9 348 14.9 102900 76
2009-06-23 07:37:18 51°19.272 2°51.1 8.9 345 14.8 102910 75
2009-06-23 07:37:23 51°19.285 2°51.089 8.3 346 14.8 102910 75
2009-06-23 07:37:28 51°19.299 2°51.077 8 347 14.8 102910 74
2009-06-23 07:37:32 51°19.31 2°51.068 9.1 346 14.8 102910 74
2009-06-23 07:37:38 51°19.326 2°51.054 8 346 14.9 102910 75
2009-06-23 07:37:43 51°19.34 2°51.043 9 346 14.9 102910 75
2009-06-23 07:37:48 51°19.354 2°51.031 8.7 346 14.9 102910 74
2009-06-23 07:37:54 51°19.37 2°51.018 8.4 347 14.9 102910 74
2009-06-23 07:37:58 51°19.381 2°51.009 7.7 346 14.8 102900 74
2009-06-23 07:38:03 51°19.395 2°50.999 8.9 347 14.8 102900 74
2009-06-23 07:38:08 51°19.409 2°50.988 8.3 348 14.8 102900 73
2009-06-23 07:38:12 51°19.42 2°50.98 7.6 348 14.8 102900 73
2009-06-23 07:38:18 51°19.436 2°50.967 7.4 349 14.8 102910 72
2009-06-23 07:38:23 51°19.45 2°50.956 7 348 14.8 102910 72
2009-06-23 07:38:28 51°19.463 2°50.945 9.1 346 14.9 102910 73
2009-06-23 07:38:32 51°19.474 2°50.936 8.3 281 14.9 102910 73
2009-06-23 07:38:38 51°19.49 2°50.922 8.4 347 14.9 102910 74
2009-06-23 07:38:43 51°19.504 2°50.912 8.3 346 14.9 102910 74
2009-06-23 07:38:48 51°19.518 2°50.901 8.6 347 14.9 102900 74
2009-06-23 07:38:52 51°19.529 2°50.893 9.1 349 14.9 102900 74
2009-06-23 07:38:58 51°19.545 2°50.88 8.9 348 14.9 102910 72
2009-06-23 07:39:03 51°19.559 2°50.869 9 347 14.9 102910 72
2009-06-23 07:39:08 51°19.572 2°50.859 8.8 347 14.9 102900 73
2009-06-23 07:39:12 51°19.583 2°50.85 8.9 348 14.9 102900 73
2009-06-23 07:39:18 51°19.6 2°50.837 7.6 349 14.9 102900 72
2009-06-23 07:39:23 51°19.613 2°50.826 8.7 351 14.9 102900 72
2009-06-23 07:39:28 51°19.627 2°50.816 8.1 347 14.8 102910 70
2009-06-23 07:39:34 51°19.643 2°50.803 8.8 279 14.8 102910 70
2009-06-23 07:39:38 51°19.654 2°50.794 8.9 348 14.8 102900 70
2009-06-23 07:39:43 51°19.668 2°50.783 8.9 348 14.8 102900 70
2009-06-23 07:39:48 51°19.682 2°50.773 7.6 348 14.8 102900 70
2009-06-23 07:39:54 51°19.698 2°50.76 7.9 348 14.8 102900 70
2009-06-23 07:39:58 51°19.709 2°50.752 8.5 348 14.9 102910 70
2009-06-23 07:40:03 51°19.723 2°50.741 7.5 349 14.9 102910 70
2009-06-23 07:40:08 51°19.737 2°50.731 8.2 349 14.9 102910 71
2009-06-23 07:40:12 51°19.748 2°50.722 7.4 351 14.9 102910 71
2009-06-23 07:40:18 51°19.764 2°50.709 7.5 350 14.9 102900 71
2009-06-23 07:40:23 51°19.778 2°50.698 8.3 347 14.9 102900 71
2009-06-23 07:40:28 51°19.792 2°50.688 9 347 14.9 102910 70
2009-06-23 07:40:32 51°19.803 2°50.679 8.5 347 14.9 102910 70
2009-06-23 07:40:38 51°19.819 2°50.667 7.9 348 14.9 102900 72
2009-06-23 07:40:44 51°19.836 2°50.654 8.1 351 14.9 102900 72
2009-06-23 07:40:48 51°19.847 2°50.645 7.7 346 14.9 102900 73
2009-06-23 07:40:53 51°19.861 2°50.635 8.6 348 14.9 102900 73
2009-06-23 07:40:58 51°19.875 2°50.624 7.5 349 14.9 102910 73
2009-06-23 07:41:03 51°19.889 2°50.614 7.5 349 14.9 102910 73
2009-06-23 07:41:08 51°19.903 2°50.604 7.9 348 14.9 102910 72
2009-06-23 07:41:13 51°19.917 2°50.594 8.7 346 14.9 102910 72
2009-06-23 07:41:18 51°19.931 2°50.583 9.6 350 14.9 102910 72
2009-06-23 07:41:23 51°19.945 2°50.573 9.2 350 14.9 102910 72
2009-06-23 07:41:28 51°19.959 2°50.562 8 349 14.9 102900 73
2009-06-23 07:41:33 51°19.973 2°50.551 7.7 350 14.9 102900 73
2009-06-23 07:41:38 51°19.987 2°50.541 7 347 15 102910 74
2009-06-23 07:41:43 51°20.001 2°50.53 8.6 349 15 102910 74
2009-06-23 07:41:48 51°20.015 2°50.519 7.3 348 14.9 102900 73
2009-06-23 07:41:53 51°20.029 2°50.508 7.7 345 14.9 102900 73
2009-06-23 07:41:58 51°20.043 2°50.497 8.7 346 14.9 102900 73
2009-06-23 07:42:03 51°20.057 2°50.485 7.2 346 14.9 102900 73
2009-06-23 07:42:08 51°20.07 2°50.474 7 345 14.9 102900 73
2009-06-23 07:42:13 51°20.084 2°50.463 7.7 345 14.9 102900 73
2009-06-23 07:42:18 51°20.098 2°50.451 8.8 345 14.9 102900 72
2009-06-23 07:42:23 51°20.112 2°50.44 7.5 346 14.9 102900 72
2009-06-23 07:42:28 51°20.126 2°50.428 9.1 348 14.9 102900 72
2009-06-23 07:42:33 51°20.14 2°50.416 8.7 279 14.9 102900 72
2009-06-23 07:42:39 51°20.156 2°50.402 7.6 350 14.9 102910 74
2009-06-23 07:42:43 51°20.167 2°50.393 7.9 349 14.9 102910 74
2009-06-23 07:42:48 51°20.181 2°50.381 7.5 349 14.9 102910 73
2009-06-23 07:42:53 51°20.195 2°50.369 6.8 349 14.9 102910 73
2009-06-23 07:42:59 51°20.212 2°50.355 8.5 345 14.9 102900 73
2009-06-23 07:43:03 51°20.223 2°50.346 6.8 347 14.9 102900 73
2009-06-23 07:43:08 51°20.237 2°50.334 6.8 349 14.9 102900 73
2009-06-23 07:43:13 51°20.251 2°50.322 7.9 347 14.9 102900 73
2009-06-23 07:43:18 51°20.265 2°50.31 7.8 346 14.9 102910 74
2009-06-23 07:43:23 51°20.279 2°50.298 8.7 348 14.9 102910 74
2009-06-23 07:43:28 51°20.293 2°50.286 8.7 348 15 102910 74
2009-06-23 07:43:33 51°20.307 2°50.274 8.7 348 15 102910 74
2009-06-23 07:43:38 51°20.321 2°50.262 7.8 350 15 102910 74
2009-06-23 07:43:43 51°20.335 2°50.251 8.6 349 15 102910 74
2009-06-23 07:43:48 51°20.349 2°50.24 8.4 349 15 102900 73
2009-06-23 07:43:53 51°20.363 2°50.229 8.2 349 15 102900 73
2009-06-23 07:43:58 51°20.377 2°50.218 8.9 347 14.9 102900 72
2009-06-23 07:44:03 51°20.391 2°50.207 9.4 347 14.9 102900 72
2009-06-23 07:44:08 51°20.406 2°50.195 8.8 344 14.9 102900 73
2009-06-23 07:44:13 51°20.42 2°50.184 7.9 344 14.9 102900 73
2009-06-23 07:44:18 51°20.434 2°50.172 8 344 14.9 102900 71
2009-06-23 07:44:23 51°20.448 2°50.161 7.6 344 14.9 102900 71
2009-06-23 07:44:28 51°20.462 2°50.15 7.4 344 15 102900 73
2009-06-23 07:44:33 51°20.477 2°50.139 8.4 277 15 102900 73
2009-06-23 07:44:39 51°20.494 2°50.126 9.6 346 15 102900 73
2009-06-23 07:44:43 51°20.505 2°50.118 8.9 345 15 102900 73
2009-06-23 07:44:48 51°20.52 2°50.106 8.8 345 15 102910 71
2009-06-23 07:44:53 51°20.534 2°50.096 10 345 15 102910 71
2009-06-23 07:44:59 51°20.551 2°50.083 9.4 346 15 102910 72
2009-06-23 07:45:03 51°20.562 2°50.074 8.8 349 15 102910 72
2009-06-23 07:45:08 51°20.577 2°50.063 7.2 347 15 102900 72
2009-06-23 07:45:13 51°20.591 2°50.052 7.8 344 15 102900 72
2009-06-23 07:45:19 51°20.608 2°50.039 8.9 345 15 102900 71
2009-06-23 07:45:23 51°20.62 2°50.031 8.9 346 15 102900 71
2009-06-23 07:45:28 51°20.634 2°50.019 9.5 345 15 102900 71
2009-06-23 07:45:33 51°20.649 2°50.008 8 346 15 102900 71
2009-06-23 07:45:38 51°20.663 2°49.997 9.5 347 15.1 102910 72
2009-06-23 07:45:43 51°20.677 2°49.986 9 343 15.1 102910 72
2009-06-23 07:45:48 51°20.692 2°49.975 9.7 345 15.1 102900 71
2009-06-23 07:45:53 51°20.706 2°49.964 8 346 15.1 102900 71
2009-06-23 07:45:58 51°20.72 2°49.953 9.1 346 15.1 102900 71
2009-06-23 07:46:03 51°20.734 2°49.942 9.4 346 15.1 102900 71
2009-06-23 07:46:08 51°20.749 2°49.931 9.3 348 15.1 102900 70
2009-06-23 07:46:13 51°20.763 2°49.919 9.7 347 15.1 102900 70
2009-06-23 07:46:18 51°20.778 2°49.908 9.4 347 15.1 102900 70
2009-06-23 07:46:23 51°20.792 2°49.897 8 345 15.1 102900 70
2009-06-23 07:46:28 51°20.807 2°49.885 8.9 346 15.1 102910 71
2009-06-23 07:46:33 51°20.821 2°49.874 9.6 280 15.1 102910 71
2009-06-23 07:46:38 51°20.836 2°49.863 8 344 15.1 102910 71
2009-06-23 07:46:43 51°20.85 2°49.852 9.5 344 15.1 102910 71
2009-06-23 07:46:48 51°20.865 2°49.841 9.8 345 15.1 102910 70
2009-06-23 07:46:54 51°20.882 2°49.827 7.9 344 15.1 102910 70
2009-06-23 07:46:58 51°20.894 2°49.818 8.1 344 15.1 102910 72
2009-06-23 07:47:04 51°20.911 2°49.805 8.5 344 15.1 102910 72
2009-06-23 07:47:08 51°20.922 2°49.796 7.3 344 15.2 102900 73
2009-06-23 07:47:13 51°20.937 2°49.785 8.3 342 15.2 102900 73
2009-06-23 07:47:19 51°20.954 2°49.771 8.6 341 15.2 102900 72
2009-06-23 07:47:23 51°20.966 2°49.762 9 343 15.2 102900 72
2009-06-23 07:47:28 51°20.98 2°49.751 7.4 346 15.2 102910 72
2009-06-23 07:47:33 51°20.995 2°49.74 8.6 346 15.2 102910 72
2009-06-23 07:47:39 51°21.013 2°49.726 9.1 344 15.2 102910 71
2009-06-23 07:47:43 51°21.024 2°49.718 8.6 342 15.2 102910 71
2009-06-23 07:47:48 51°21.039 2°49.706 8.2 342 15.2 102910 71
2009-06-23 07:47:53 51°21.053 2°49.695 8.8 342 15.2 102910 71
2009-06-23 07:47:58 51°21.068 2°49.684 8.9 342 15.2 102910 72
2009-06-23 07:48:03 51°21.082 2°49.673 8.8 342 15.2 102910 72
2009-06-23 07:48:08 51°21.097 2°49.662 9.3 343 15.2 102910 71
2009-06-23 07:48:13 51°21.111 2°49.65 8.3 344 15.2 102910 71
2009-06-23 07:48:18 51°21.126 2°49.639 7.2 342 15.3 102910 72
2009-06-23 07:48:23 51°21.141 2°49.628 8.6 342 15.3 102910 72
2009-06-23 07:48:28 51°21.155 2°49.617 7.2 341 15.3 102910 72
2009-06-23 07:48:33 51°21.17 2°49.605 7.9 287 15.3 102910 72
2009-06-23 07:48:38 51°21.184 2°49.594 7.5 342 15.3 102910 71
2009-06-23 07:48:43 51°21.199 2°49.583 7.9 343 15.3 102910 71
2009-06-23 07:48:48 51°21.213 2°49.572 7.3 344 15.3 102910 71
2009-06-23 07:48:53 51°21.228 2°49.561 8.2 344 15.3 102910 71
2009-06-23 07:48:59 51°21.245 2°49.547 7.3 343 15.3 102910 70
2009-06-23 07:49:03 51°21.257 2°49.538 7.8 343 15.3 102910 70
2009-06-23 07:49:08 51°21.271 2°49.527 7.7 345 15.3 102910 71
2009-06-23 07:49:13 51°21.286 2°49.516 8.2 345 15.3 102910 71
2009-06-23 07:49:19 51°21.303 2°49.503 8.6 346 15.3 102920 71
2009-06-23 07:49:23 51°21.315 2°49.494 7.4 344 15.3 102920 71
2009-06-23 07:49:28 51°21.329 2°49.483 7.6 342 15.4 102910 72
2009-06-23 07:49:33 51°21.344 2°49.472 8.3 343 15.4 102910 72
2009-06-23 07:49:39 51°21.362 2°49.459 8.2 342 15.3 102910 71
2009-06-23 07:49:43 51°21.373 2°49.45 7.3 340 15.3 102910 71
2009-06-23 07:49:48 51°21.388 2°49.44 8.4 340 15.3 102920 71
2009-06-23 07:49:53 51°21.403 2°49.43 7.2 341 15.3 102920 71
2009-06-23 07:49:58 51°21.417 2°49.419 6.9 342 15.3 102920 72
2009-06-23 07:50:03 51°21.432 2°49.409 8.8 342 15.3 102920 72
2009-06-23 07:50:08 51°21.446 2°49.398 8.1 342 15.3 102920 72
2009-06-23 07:50:12 51°21.458 2°49.389 7.1 340 15.3 102920 72
2009-06-23 07:50:18 51°21.476 2°49.377 7.3 341 15.3 102920 71
2009-06-23 07:50:23 51°21.49 2°49.366 7.1 341 15.3 102920 71
2009-06-23 07:50:28 51°21.505 2°49.355 7.3 344 15.4 102920 71
2009-06-23 07:50:32 51°21.516 2°49.346 8.2 283 15.4 102920 71
2009-06-23 07:50:38 51°21.534 2°49.333 7.5 342 15.4 102920 72
2009-06-23 07:50:43 51°21.549 2°49.322 7.4 343 15.4 102920 72
2009-06-23 07:50:48 51°21.563 2°49.311 7.5 342 15.4 102920 71
2009-06-23 07:50:54 51°21.581 2°49.299 7.6 342 15.4 102920 71
2009-06-23 07:50:58 51°21.593 2°49.291 7.4 342 15.4 102920 72
2009-06-23 07:51:03 51°21.608 2°49.28 7.9 343 15.4 102920 72
2009-06-23 07:51:08 51°21.622 2°49.269 8.7 344 15.4 102920 73
2009-06-23 07:51:12 51°21.634 2°49.261 8.1 344 15.4 102920 73
2009-06-23 07:51:18 51°21.652 2°49.247 8.4 344 15.4 102920 73
2009-06-23 07:51:23 51°21.667 2°49.236 7.7 342 15.4 102920 73
2009-06-23 07:51:28 51°21.681 2°49.226 8.4 341 15.4 102910 72
2009-06-23 07:51:33 51°21.696 2°49.215 7.5 343 15.4 102910 72
2009-06-23 07:51:39 51°21.713 2°49.201 9 342 15.4 102920 72
2009-06-23 07:51:43 51°21.725 2°49.193 7.6 343 15.4 102920 72
2009-06-23 07:51:48 51°21.74 2°49.182 8 342 15.4 102920 73
2009-06-23 07:51:53 51°21.755 2°49.17 8.8 342 15.4 102920 73
2009-06-23 07:51:59 51°21.772 2°49.158 7.6 343 15.4 102920 72
2009-06-23 07:52:03 51°21.784 2°49.149 9.3 342 15.4 102920 72
2009-06-23 07:52:08 51°21.799 2°49.139 9.1 343 15.4 102920 72
2009-06-23 07:52:13 51°21.814 2°49.128 7.7 343 15.4 102920 72
2009-06-23 07:52:18 51°21.829 2°49.118 9 343 15.4 102910 72
2009-06-23 07:52:23 51°21.844 2°49.108 7.4 343 15.4 102910 72
2009-06-23 07:52:28 51°21.858 2°49.097 8.6 344 15.4 102920 73
2009-06-23 07:52:33 51°21.873 2°49.086 8.1 343 15.4 102920 73
2009-06-23 07:52:38 51°21.888 2°49.075 7.9 343 15.4 102920 73
2009-06-23 07:52:43 51°21.903 2°49.064 7 344 15.4 102920 73
2009-06-23 07:52:48 51°21.918 2°49.054 8.1 344 15.4 102920 72
2009-06-23 07:52:52 51°21.93 2°49.045 8.4 343 15.4 102920 72
2009-06-23 07:52:58 51°21.947 2°49.032 8.4 344 15.3 102910 72
2009-06-23 07:53:03 51°21.962 2°49.021 8.4 344 15.3 102910 72
2009-06-23 07:53:08 51°21.977 2°49.01 7.4 343 15.3 102920 72
2009-06-23 07:53:13 51°21.992 2°48.999 8.1 342 15.3 102920 72
2009-06-23 07:53:19 51°22.01 2°48.986 7 342 15.3 102920 73
2009-06-23 07:53:23 51°22.022 2°48.977 8.5 343 15.3 102920 73
2009-06-23 07:53:28 51°22.037 2°48.967 8.6 342 15.3 102920 73
2009-06-23 07:53:33 51°22.052 2°48.956 8.4 344 15.3 102920 73
2009-06-23 07:53:39 51°22.07 2°48.944 7.1 342 15.3 102920 74
2009-06-23 07:53:43 51°22.082 2°48.936 9.1 342 15.3 102920 74
2009-06-23 07:53:48 51°22.097 2°48.925 7.4 343 15.4 102910 74
2009-06-23 07:53:53 51°22.111 2°48.914 8.5 344 15.4 102910 74
2009-06-23 07:53:59 51°22.129 2°48.902 9.1 345 15.4 102920 75
2009-06-23 07:54:03 51°22.142 2°48.894 7.3 343 15.4 102920 75
2009-06-23 07:54:08 51°22.156 2°48.883 8.3 345 15.3 102920 74
2009-06-23 07:54:13 51°22.171 2°48.872 8.7 343 15.3 102920 74
2009-06-23 07:54:18 51°22.186 2°48.861 7.8 343 15.3 102920 74
2009-06-23 07:54:23 51°22.201 2°48.85 7.3 347 15.3 102920 74
2009-06-23 07:54:28 51°22.216 2°48.84 8.5 346 15.3 102920 73
2009-06-23 07:54:32 51°22.227 2°48.832 7.4 347 15.3 102920 73
2009-06-23 07:54:38 51°22.245 2°48.821 7.3 346 15.4 102920 75
2009-06-23 07:54:43 51°22.26 2°48.811 8.5 345 15.4 102920 75
2009-06-23 07:54:48 51°22.275 2°48.802 8.2 347 15.4 102920 75
2009-06-23 07:54:53 51°22.289 2°48.793 6.9 345 15.4 102920 75
2009-06-23 07:54:58 51°22.303 2°48.784 7 344 15.4 102920 75
2009-06-23 07:55:03 51°22.318 2°48.776 8.4 344 15.4 102920 75
2009-06-23 07:55:08 51°22.332 2°48.767 8.6 344 15.4 102920 75
2009-06-23 07:55:13 51°22.347 2°48.757 8.9 343 15.4 102920 75
2009-06-23 07:55:18 51°22.361 2°48.748 7.2 343 15.4 102920 76
2009-06-23 07:55:23 51°22.375 2°48.738 9.2 341 15.4 102920 76
2009-06-23 07:55:28 51°22.389 2°48.728 8 341 15.4 102920 76
2009-06-23 07:55:33 51°22.403 2°48.72 9 341 15.4 102920 76
2009-06-23 07:55:38 51°22.417 2°48.711 8.4 342 15.4 102920 75
2009-06-23 07:55:43 51°22.431 2°48.701 7.8 340 15.4 102920 75
2009-06-23 07:55:48 51°22.445 2°48.692 10.6 339 15.4 102920 76
2009-06-23 07:55:53 51°22.459 2°48.683 8.6 346 15.4 102920 76
2009-06-23 07:55:58 51°22.473 2°48.674 8.3 347 15.4 102920 74
2009-06-23 07:56:03 51°22.487 2°48.665 7.8 345 15.4 102920 74
2009-06-23 07:56:08 51°22.501 2°48.656 9.3 342 15.4 102920 74
2009-06-23 07:56:13 51°22.515 2°48.646 11 343 15.4 102920 74
2009-06-23 07:56:18 51°22.529 2°48.638 10.3 343 15.4 102910 75
2009-06-23 07:56:23 51°22.542 2°48.629 9.9 344 15.4 102910 75
2009-06-23 07:56:28 51°22.556 2°48.621 9.9 344 15.4 102910 76
2009-06-23 07:56:33 51°22.57 2°48.612 9.4 343 15.4 102910 76
2009-06-23 07:56:39 51°22.587 2°48.601 9.1 344 15.4 102920 75
2009-06-23 07:56:43 51°22.598 2°48.594 9.4 344 15.4 102920 75
2009-06-23 07:56:48 51°22.612 2°48.586 9.1 344 15.4 102910 74
2009-06-23 07:56:53 51°22.626 2°48.577 7.7 345 15.4 102910 74
2009-06-23 07:56:58 51°22.639 2°48.568 8.9 345 15.4 102910 73
2009-06-23 07:57:03 51°22.653 2°48.56 7.3 344 15.4 102910 73
2009-06-23 07:57:08 51°22.667 2°48.55 8.5 344 15.4 102920 73
2009-06-23 07:57:13 51°22.681 2°48.541 7.8 343 15.4 102920 73
2009-06-23 07:57:18 51°22.695 2°48.533 9.3 345 15.4 102920 72
2009-06-23 07:57:23 51°22.709 2°48.524 7.9 345 15.4 102920 72
2009-06-23 07:57:28 51°22.723 2°48.515 8.1 347 15.4 102920 73
2009-06-23 07:57:33 51°22.737 2°48.506 8.7 342 15.4 102920 73
2009-06-23 07:57:38 51°22.75 2°48.496 7.2 344 15.4 102920 73
2009-06-23 07:57:43 51°22.764 2°48.486 9.2 347 15.4 102920 73
2009-06-23 07:57:48 51°22.777 2°48.477 8.2 346 15.4 102910 73
2009-06-23 07:57:53 51°22.791 2°48.468 7.8 347 15.4 102910 73
2009-06-23 07:57:58 51°22.805 2°48.459 7.6 347 15.4 102910 72
2009-06-23 07:58:03 51°22.818 2°48.449 8.3 346 15.4 102910 72
2009-06-23 07:58:08 51°22.832 2°48.439 8.4 347 15.4 102920 72
2009-06-23 07:58:13 51°22.845 2°48.43 7.5 346 15.4 102920 72
2009-06-23 07:58:19 51°22.861 2°48.417 7.3 344 15.4 102910 71
2009-06-23 07:58:23 51°22.872 2°48.409 9 345 15.4 102910 71
2009-06-23 07:58:28 51°22.886 2°48.399 7.8 344 15.4 102920 71
2009-06-23 07:58:33 51°22.899 2°48.389 7.9 344 15.4 102920 71
2009-06-23 07:58:39 51°22.916 2°48.376 7.6 344 15.4 102910 72
2009-06-23 07:58:43 51°22.926 2°48.368 7.6 343 15.4 102910 72
2009-06-23 07:58:48 51°22.94 2°48.357 8.5 344 15.4 102920 73
2009-06-23 07:58:53 51°22.953 2°48.346 8.6 343 15.4 102920 73
2009-06-23 07:58:59 51°22.969 2°48.333 7.8 344 15.4 102910 72
2009-06-23 07:59:03 51°22.98 2°48.325 7.3 344 15.4 102910 72
2009-06-23 07:59:08 51°22.994 2°48.315 8.4 342 15.4 102920 72
2009-06-23 07:59:13 51°23.008 2°48.305 8.6 344 15.4 102920 72
2009-06-23 07:59:18 51°23.021 2°48.295 7.7 344 15.4 102910 72
2009-06-23 07:59:23 51°23.035 2°48.284 7.6 345 15.4 102910 72
2009-06-23 07:59:28 51°23.048 2°48.273 7.8 345 15.4 102920 71
2009-06-23 07:59:33 51°23.062 2°48.262 8.1 344 15.4 102920 71
2009-06-23 07:59:38 51°23.076 2°48.253 8.8 343 15.4 102920 72
2009-06-23 07:59:43 51°23.089 2°48.242 9 344 15.4 102920 72
2009-06-23 07:59:48 51°23.103 2°48.233 9.4 346 15.4 102910 73
2009-06-23 07:59:53 51°23.117 2°48.222 10 343 15.4 102910 73
2009-06-23 07:59:59 51°23.133 2°48.21 9.4 345 15.5 102920 73
2009-06-23 08:00:03 51°23.144 2°48.202 9 344 15.5 102920 73
2009-06-23 08:00:08 51°23.158 2°48.192 9.3 344 15.4 102920 73
2009-06-23 08:00:13 51°23.172 2°48.182 9.2 344 15.4 102920 73
2009-06-23 08:00:19 51°23.188 2°48.169 8.7 345 15.4 102910 73
2009-06-23 08:00:23 51°23.199 2°48.161 8.8 345 15.4 102910 73
2009-06-23 08:00:28 51°23.213 2°48.15 8.1 346 15.4 102920 72
2009-06-23 08:00:33 51°23.227 2°48.14 7.5 344 15.4 102920 72
2009-06-23 08:00:39 51°23.244 2°48.126 9.3 345 15.4 102920 72
2009-06-23 08:00:43 51°23.255 2°48.118 8.4 345 15.4 102920 72
2009-06-23 08:00:48 51°23.268 2°48.108 9.4 345 15.4 102920 72
2009-06-23 08:00:53 51°23.282 2°48.098 9.2 343 15.4 102920 72
2009-06-23 08:00:59 51°23.299 2°48.086 8.1 342 15.4 102920 73
2009-06-23 08:01:03 51°23.31 2°48.078 7.7 341 15.4 102920 73
2009-06-23 08:01:08 51°23.324 2°48.067 9.2 340 15.4 102920 72
2009-06-23 08:01:13 51°23.338 2°48.056 8.3 340 15.4 102920 72
2009-06-23 08:01:18 51°23.352 2°48.046 8.8 340 15.4 102920 74
2009-06-23 08:01:23 51°23.366 2°48.035 8.4 340 15.4 102920 74
2009-06-23 08:01:28 51°23.38 2°48.024 8.5 341 15.5 102920 74
2009-06-23 08:01:33 51°23.393 2°48.013 7.4 339 15.5 102920 74
2009-06-23 08:01:38 51°23.407 2°48.003 8.9 340 15.5 102920 74
2009-06-23 08:01:43 51°23.421 2°47.992 8.3 341 15.5 102920 74
2009-06-23 08:01:48 51°23.435 2°47.981 7.7 340 15.5 102920 74
2009-06-23 08:01:53 51°23.449 2°47.971 8.7 342 15.5 102920 74
2009-06-23 08:01:58 51°23.463 2°47.96 8.3 339 15.5 102920 74
2009-06-23 08:02:03 51°23.477 2°47.949 7.4 339 15.5 102920 74
2009-06-23 08:02:08 51°23.49 2°47.937 8.7 340 15.5 102920 74
2009-06-23 08:02:13 51°23.504 2°47.926 7.8 341 15.5 102920 74
2009-06-23 08:02:18 51°23.518 2°47.915 7.7 343 15.5 102920 75
2009-06-23 08:02:23 51°23.532 2°47.905 9.4 341 15.5 102920 75
2009-06-23 08:02:28 51°23.546 2°47.894 9.3 340 15.5 102920 74
2009-06-23 08:02:33 51°23.56 2°47.883 8.9 341 15.5 102920 74
2009-06-23 08:02:38 51°23.574 2°47.872 8.6 341 15.6 102920 74
2009-06-23 08:02:43 51°23.588 2°47.861 8.6 342 15.6 102920 74
2009-06-23 08:02:48 51°23.602 2°47.85 9.7 341 15.6 102920 74
2009-06-23 08:02:53 51°23.616 2°47.839 9.4 342 15.6 102920 74
2009-06-23 08:02:58 51°23.63 2°47.829 9.6 341 15.6 102920 74
2009-06-23 08:03:03 51°23.644 2°47.818 8.4 341 15.6 102920 74
2009-06-23 08:03:08 51°23.658 2°47.807 8.8 342 15.6 102920 74
2009-06-23 08:03:13 51°23.672 2°47.796 9.1 342 15.6 102920 74
2009-06-23 08:03:19 51°23.688 2°47.783 8.1 342 15.6 102920 74
2009-06-23 08:03:23 51°23.7 2°47.775 9.2 342 15.6 102920 74
2009-06-23 08:03:28 51°23.714 2°47.764 9.2 342 15.6 102920 74
2009-06-23 08:03:33 51°23.728 2°47.753 9 341 15.6 102920 74
2009-06-23 08:03:39 51°23.745 2°47.74 8.2 342 15.6 102920 74
2009-06-23 08:03:43 51°23.756 2°47.732 9.1 341 15.6 102920 74
2009-06-23 08:03:48 51°23.77 2°47.721 8.8 342 15.6 102920 74
2009-06-23 08:03:53 51°23.784 2°47.711 8.9 342 15.6 102920 74
2009-06-23 08:03:58 51°23.798 2°47.701 7.7 340 15.6 102920 73
2009-06-23 08:04:03 51°23.812 2°47.69 7.7 342 15.6 102920 73
2009-06-23 08:04:08 51°23.826 2°47.679 7.8 340 15.6 102910 74
2009-06-23 08:04:13 51°23.84 2°47.668 8.5 341 15.6 102910 74
2009-06-23 08:04:18 51°23.854 2°47.658 8 340 15.6 102920 73
2009-06-23 08:04:23 51°23.868 2°47.647 7.9 343 15.6 102920 73
2009-06-23 08:04:28 51°23.882 2°47.637 9.3 341 15.7 102920 74
2009-06-23 08:04:33 51°23.896 2°47.626 10.1 344 15.7 102920 74
2009-06-23 08:04:38 51°23.911 2°47.616 8.4 343 15.7 102920 74
2009-06-23 08:04:43 51°23.925 2°47.605 9.4 341 15.7 102920 74
2009-06-23 08:04:48 51°23.939 2°47.595 9.8 342 15.7 102920 74
2009-06-23 08:04:53 51°23.953 2°47.585 10.3 342 15.7 102920 74
2009-06-23 08:04:59 51°23.97 2°47.573 8.8 342 15.7 102920 74
2009-06-23 08:05:03 51°23.982 2°47.565 10.4 344 15.7 102920 74
2009-06-23 08:05:08 51°23.996 2°47.554 9 343 15.7 102920 74
2009-06-23 08:05:13 51°24.01 2°47.543 9.9 344 15.7 102920 74
2009-06-23 08:05:19 51°24.027 2°47.531 8.6 345 15.7 102920 74
2009-06-23 08:05:23 51°24.038 2°47.522 9 345 15.7 102920 74
2009-06-23 08:05:28 51°24.052 2°47.512 9.2 344 15.7 102920 73
2009-06-23 08:05:33 51°24.066 2°47.502 9.9 345 15.7 102920 73
2009-06-23 08:05:39 51°24.083 2°47.489 10.1 345 15.7 102920 73
2009-06-23 08:05:43 51°24.094 2°47.481 10 344 15.7 102920 73
2009-06-23 08:05:48 51°24.108 2°47.47 9.1 344 15.7 102920 74
2009-06-23 08:05:53 51°24.123 2°47.459 10.5 345 15.7 102920 74
2009-06-23 08:05:58 51°24.137 2°47.448 10 345 15.6 102910 74
2009-06-23 08:06:03 51°24.151 2°47.437 9.5 344 15.6 102910 74
2009-06-23 08:06:08 51°24.165 2°47.426 10.4 344 15.6 102910 72
2009-06-23 08:06:13 51°24.179 2°47.415 8.8 345 15.6 102910 72
2009-06-23 08:06:18 51°24.193 2°47.404 8.8 345 15.6 102920 71
2009-06-23 08:06:23 51°24.207 2°47.394 8.8 346 15.6 102920 71
2009-06-23 08:06:28 51°24.221 2°47.382 9.4 345 15.6 102920 71
2009-06-23 08:06:33 51°24.235 2°47.372 8.8 344 15.6 102920 71
2009-06-23 08:06:39 51°24.252 2°47.359 8.6 343 15.5 102920 71
2009-06-23 08:06:43 51°24.264 2°47.35 9 344 15.5 102920 71
2009-06-23 08:06:48 51°24.278 2°47.339 8.8 344 15.5 102920 71
2009-06-23 08:06:53 51°24.292 2°47.328 9 344 15.5 102920 71
2009-06-23 08:06:59 51°24.309 2°47.315 10 343 15.5 102920 72
2009-06-23 08:07:03 51°24.32 2°47.306 8.8 342 15.5 102920 72
2009-06-23 08:07:08 51°24.334 2°47.295 9.8 342 15.5 102920 72
2009-06-23 08:07:13 51°24.348 2°47.284 9.9 343 15.5 102920 72
2009-06-23 08:07:19 51°24.366 2°47.272 8.7 342 15.5 102920 73
2009-06-23 08:07:23 51°24.377 2°47.263 8.1 345 15.5 102920 73
2009-06-23 08:07:28 51°24.39 2°47.253 9.4 342 15.5 102920 72
2009-06-23 08:07:33 51°24.404 2°47.242 9.1 343 15.5 102920 72
2009-06-23 08:07:39 51°24.421 2°47.229 10.2 342 15.5 102920 72
2009-06-23 08:07:43 51°24.432 2°47.22 9.8 343 15.5 102920 72
2009-06-23 08:07:48 51°24.446 2°47.21 9 343 15.5 102920 72
2009-06-23 08:07:53 51°24.46 2°47.199 10.1 342 15.5 102920 72
2009-06-23 08:07:58 51°24.474 2°47.189 8.7 342 15.6 102920 72
2009-06-23 08:08:03 51°24.489 2°47.178 9.7 342 15.6 102920 72
2009-06-23 08:08:08 51°24.503 2°47.167 10 342 15.5 102910 73
2009-06-23 08:08:12 51°24.514 2°47.159 9 342 15.5 102910 73
2009-06-23 08:08:18 51°24.531 2°47.145 9.7 343 15.5 102910 71
2009-06-23 08:08:23 51°24.546 2°47.135 8.9 342 15.5 102910 71
2009-06-23 08:08:28 51°24.56 2°47.124 9.4 343 15.5 102920 71
2009-06-23 08:08:33 51°24.575 2°47.114 9.8 343 15.5 102920 71
2009-06-23 08:08:38 51°24.589 2°47.103 9.8 343 15.5 102920 71
2009-06-23 08:08:43 51°24.604 2°47.093 9.2 343 15.5 102920 71
2009-06-23 08:08:48 51°24.618 2°47.082 10 345 15.5 102920 71
2009-06-23 08:08:53 51°24.633 2°47.072 8.7 344 15.5 102920 71
2009-06-23 08:08:58 51°24.647 2°47.061 10 345 15.5 102920 71
2009-06-23 08:09:03 51°24.662 2°47.049 9.9 343 15.5 102920 71
2009-06-23 08:09:08 51°24.676 2°47.038 9.7 344 15.5 102920 71
2009-06-23 08:09:13 51°24.69 2°47.027 9.3 344 15.5 102920 71
2009-06-23 08:09:18 51°24.705 2°47.015 9.8 344 15.5 102920 71
2009-06-23 08:09:23 51°24.719 2°47.004 10.6 343 15.5 102920 71
2009-06-23 08:09:28 51°24.734 2°46.992 10.2 344 15.5 102910 71
2009-06-23 08:09:33 51°24.748 2°46.981 9.2 344 15.5 102910 71
2009-06-23 08:09:38 51°24.762 2°46.969 9.8 344 15.5 102920 72
2009-06-23 08:09:43 51°24.777 2°46.958 8.7 345 15.5 102920 72
2009-06-23 08:09:48 51°24.791 2°46.947 9 345 15.6 102920 71
2009-06-23 08:09:54 51°24.808 2°46.934 9.3 343 15.6 102920 71
2009-06-23 08:09:58 51°24.82 2°46.925 8.3 344 15.5 102920 72
2009-06-23 08:10:03 51°24.835 2°46.914 8.5 344 15.5 102920 72
2009-06-23 08:10:08 51°24.849 2°46.903 9 344 15.5 102920 72
2009-06-23 08:10:13 51°24.864 2°46.892 10.1 344 15.5 102920 72
2009-06-23 08:10:19 51°24.881 2°46.879 10.2 343 15.5 102910 71
2009-06-23 08:10:23 51°24.893 2°46.869 9 343 15.5 102910 71
2009-06-23 08:10:28 51°24.907 2°46.859 9.7 344 15.5 102920 72
2009-06-23 08:10:33 51°24.922 2°46.848 10.1 343 15.5 102920 72
2009-06-23 08:10:38 51°24.936 2°46.838 10 343 15.5 102920 72
2009-06-23 08:10:43 51°24.951 2°46.827 10.1 340 15.5 102920 72
2009-06-23 08:10:48 51°24.966 2°46.817 9.1 340 15.5 102920 73
2009-06-23 08:10:53 51°24.98 2°46.806 8.5 341 15.5 102920 73
2009-06-23 08:10:58 51°24.994 2°46.796 10.2 341 15.5 102920 73
2009-06-23 08:11:03 51°25.009 2°46.786 8.9 341 15.5 102920 73
2009-06-23 08:11:08 51°25.023 2°46.775 9.2 341 15.5 102920 73
2009-06-23 08:11:13 51°25.038 2°46.764 8.4 339 15.5 102920 73
2009-06-23 08:11:18 51°25.052 2°46.754 8.4 338 15.5 102920 74
2009-06-23 08:11:23 51°25.066 2°46.743 11.3 344 15.5 102920 74
2009-06-23 08:11:28 51°25.08 2°46.733 11.1 345 15.5 102910 74
2009-06-23 08:11:32 51°25.092 2°46.724 9.8 344 15.5 102910 74
2009-06-23 08:11:38 51°25.109 2°46.712 9.9 346 15.5 102920 73
2009-06-23 08:11:43 51°25.124 2°46.701 9.3 342 15.5 102920 73
2009-06-23 08:11:48 51°25.138 2°46.691 10.9 343 15.6 102920 74
2009-06-23 08:11:53 51°25.152 2°46.68 10.5 345 15.6 102920 74
2009-06-23 08:11:59 51°25.17 2°46.667 10.2 345 15.6 102910 75
2009-06-23 08:12:03 51°25.181 2°46.659 9.5 344 15.6 102910 75
2009-06-23 08:12:08 51°25.195 2°46.648 10.9 343 15.6 102920 76
2009-06-23 08:12:13 51°25.209 2°46.637 9.9 345 15.6 102920 76
2009-06-23 08:12:19 51°25.226 2°46.625 11 345 15.5 102910 75
2009-06-23 08:12:23 51°25.238 2°46.616 9.6 347 15.5 102910 75
2009-06-23 08:12:28 51°25.252 2°46.606 10.6 347 15.6 102920 75
2009-06-23 08:12:33 51°25.266 2°46.594 10.7 348 15.6 102920 75
2009-06-23 08:12:39 51°25.283 2°46.581 10.4 348 15.5 102910 74
2009-06-23 08:12:43 51°25.294 2°46.572 9.1 346 15.5 102910 74
2009-06-23 08:12:48 51°25.309 2°46.562 9.8 347 15.5 102910 74
2009-06-23 08:12:53 51°25.323 2°46.551 10 346 15.5 102910 74
2009-06-23 08:12:58 51°25.337 2°46.54 9.7 347 15.5 102910 74
2009-06-23 08:13:03 51°25.352 2°46.53 10.5 346 15.5 102910 74
2009-06-23 08:13:08 51°25.366 2°46.519 9.9 345 15.4 102910 73
2009-06-23 08:13:13 51°25.38 2°46.509 9.3 346 15.4 102910 73
2009-06-23 08:13:18 51°25.394 2°46.498 10.6 346 15.4 102910 74